Location: ????????
(55.0097°N, 38.5678°E)
Time: 03:32:42
(UTC+00:00)

Envisat - Pass Details

Date: 14 April 2024
Orbit: 762 x 764 km, 98.3° (Epoch: 23 May)

Event Time Altitude Azimuth Distance (km) Brightness Sun altitude
Rises 01:00:07 0° 16° (NNE) 3,245 7.1 -11.6°
Reaches altitude 10° 01:02:26 10° 17° (NNE) 2,314 6.3 -11.3°
Maximum altitude 01:07:33 79° 105° (ESE) 785 3.1 -10.7°
Drops below altitude 10° 01:12:37 10° 192° (SSW) 2,296 5.1 -10.1°
Enters shadow 01:14:10 - 193° (SSW) 2,919 5.6 -9.9°
